This is the latest recevied weather packets stored in our database for station/object E24QND-2. If no packets are shown the sender has not sent any weather packets the latest 10 day(s).
| Time | Temp. | Humidity | Pressure | Rain* | Wind** | Luminosity | Snow |
|---|---|---|---|---|---|---|---|
| 1777674460 | 26.11° C | 99% | - | - | - | 0 W/m² | - |
| 1777673235 | 26.11° C | 99% | - | - | - | 0 W/m² | - |
| 1777672011 | 25.56° C | 99% | - | - | - | 0 W/m² | - |
| 1777670761 | 26.11° C | 99% | - | - | - | 0 W/m² | - |
| 1777669536 | 26.11° C | 99% | - | - | - | 0 W/m² | - |
| 1777668312 | 26.11° C | 99% | - | - | - | 0 W/m² | - |
| 1777667087 | 26.11° C | 99% | - | - | - | 0 W/m² | - |
| 1777665862 | 26.11° C | 99% | - | - | - | 0 W/m² | - |
| 1777664638 | 26.67° C | 99% | - | - | - | 0 W/m² | - |
| 1777663414 | 26.67° C | 99% | - | - | - | 0 W/m² | - |
| 1777662189 | 26.67° C | 99% | - | - | - | 0 W/m² | - |
| 1777660964 | 26.67° C | 99% | - | - | - | 0 W/m² | - |
| 1777659740 | 26.67° C | 99% | - | - | - | 0 W/m² | - |
| 1777658515 | 26.67° C | 99% | - | - | - | 0 W/m² | - |
| 1777657291 | 26.11° C | 99% | - | - | - | 0 W/m² | - |
| 1777656066 | 26.11° C | 99% | - | - | - | 0 W/m² | - |
| 1777654842 | 26.67° C | 99% | - | - | - | 0 W/m² | - |
| 1777653660 | 26.67° C | 94% | - | - | - | 0 W/m² | - |
| 1777652393 | 27.22° C | 63% | - | - | - | 0 W/m² | - |
| 1777651168 | 26.67° C | 59% | - | - | - | 0 W/m² | - |
| 1777649943 | 26.67° C | 61% | - | - | - | 0 W/m² | - |
| 1777648719 | 26.67° C | 55% | - | - | - | 0 W/m² | - |
| 1777647494 | 27.22° C | 85% | - | - | - | 0 W/m² | - |
| 1777646270 | 28.89° C | 59% | - | - | - | 0 W/m² | - |
| 1777645020 | 30° C | 85% | - | - | - | 0 W/m² | - |
* Rain since midnight (hover to see other rain measurements)
** Current wind speed in m/s (hover to see current wind gust speed)